Location: ??????
(36.0418°N, 43.6351°E)
Time: 04:26:53
(UTC+00:00)

Cosmos 883 Rocket - Pass Details

Date: 07 March 2021
Orbit: 951 x 994 km, 83.0° (Epoch: 20 April)

Event Time Altitude Azimuth Distance (km) Brightness Sun altitude
Exits shadow 01:35:58 38° 216° (SW) 1,430 5.0 -23.3°
Maximum altitude 01:38:15 61° 278° (W) 1,080 4.4 -22.9°
Drops below altitude 10° 01:44:19 10° 359° (N) 2,686 6.9 -21.7°
Sets 01:46:52 0° 3° (N) 3,633 7.6 -21.2°
